Address 0xbee397129374d0b4db7bf1654936951e5bdfe5a6 1

Txn Hash Method
Block
From
To
Value [Txn Fee]
0x2e18b696032137cc82826e6a40e908e10427a24f671b2807c9aab2e7b806a18bSet Prices131310112021-10-11 11:33:1014 days 1 hr ago0xbee397129374d0b4db7bf1654936951e5bdfe5a6OUT 0x20e5e35ba29dc3b540a1aee781d0814d5c77bce60 BNB0.00038474
0xc02ddef4223ca9bb0f2aa91091808599fb343dc7983ded2455b8f5ba217e48acUpgrade131305492021-10-11 11:10:0414 days 2 hrs ago0xbee397129374d0b4db7bf1654936951e5bdfe5a6OUT 0x40151e5d012e7de6000f7144288ef50af78882be0 BNB0.00033814
0x04e1cf6504e0edc0e95b53a83a583f94cc4fc5e681f60fb8b6c3ff6e123ee847Upgrade131305492021-10-11 11:10:0414 days 2 hrs ago0xbee397129374d0b4db7bf1654936951e5bdfe5a6OUT 0x40151e5d012e7de6000f7144288ef50af78882be0 BNB0.00033814
0x1f83bd1fe7f70d1a4099a594e59fa2b833cc3421f6f591c9fd0b4286631efadfUpgrade131304572021-10-11 11:05:2814 days 2 hrs ago0xbee397129374d0b4db7bf1654936951e5bdfe5a6OUT 0x40151e5d012e7de6000f7144288ef50af78882be0 BNB0.00033814
0x612de09dd3c2d4226f975542fe2241c37e8ded1b458771a5e57f9f93ae588de30x60806040131304542021-10-11 11:05:1914 days 2 hrs ago0xbee397129374d0b4db7bf1654936951e5bdfe5a6OUT Contract Creation0 BNB0.01807513
0x01741da9677c64b893559adc68c43c0fe414286cfaae0aba693978cd4d24a972Upgrade131304542021-10-11 11:05:1914 days 2 hrs ago0xbee397129374d0b4db7bf1654936951e5bdfe5a6OUT 0x40151e5d012e7de6000f7144288ef50af78882be0 BNB0.00033814
0x8f273529ce9f5c61365736244cb0c3f4349ae40d7aa7a58f122dfed51a1384cd0x60806040131304502021-10-11 11:05:0714 days 2 hrs ago0xbee397129374d0b4db7bf1654936951e5bdfe5a6OUT Contract Creation0 BNB0.02766098
0x209e4634e7696c94eeca71163433e4e523e17dd881f6c33f469f6180092c1443Set Prices131303582021-10-11 11:00:3114 days 2 hrs ago0xbee397129374d0b4db7bf1654936951e5bdfe5a6OUT 0x20e5e35ba29dc3b540a1aee781d0814d5c77bce60 BNB0.00038486
0x348cc9d2de9f975efa6253ecd8ce4673fb244898028ac1c0ca36b6c895b375c4Set Prices131303232021-10-11 10:58:4614 days 2 hrs ago0xbee397129374d0b4db7bf1654936951e5bdfe5a6OUT 0x20e5e35ba29dc3b540a1aee781d0814d5c77bce60 BNB0.00038474
0xe8b5e25e286bbdedaa40526d16b99cfe172380553eb606baf94f4b21ec880f4cSwap Tokens For ...131299972021-10-11 10:42:2814 days 2 hrs ago0xbee397129374d0b4db7bf1654936951e5bdfe5a6OUT 0x9ac64cc6e4415144c455bd8e4837fea55603e5c30 BNB0.00287093
0x1c5c139fe73c78341aad6f35d0a8731ffbef68d80e081058173ef8ab8b9d16f2Approve131299782021-10-11 10:41:3114 days 2 hrs ago0xbee397129374d0b4db7bf1654936951e5bdfe5a6OUT 0xf523e4478d909968090a232eb380e2dd6f8025180 BNB0.0004724
0x8862e67e97f992420bcae4ef46f1e7a47ff2fe040e92ba67d102b43d80f1abf9Swap Exact ETH F...131298132021-10-11 10:33:1614 days 2 hrs ago0xbee397129374d0b4db7bf1654936951e5bdfe5a6OUT 0x9ac64cc6e4415144c455bd8e4837fea55603e5c30.001 BNB0.00125639
0x6921bf3f6479f8c6af388737f535b2b103af10f1cd7bb80ce15da0fa7f205aedSet Prices131283722021-10-11 9:21:1314 days 4 hrs ago0xbee397129374d0b4db7bf1654936951e5bdfe5a6OUT 0x20e5e35ba29dc3b540a1aee781d0814d5c77bce60 BNB0.00038486
0x9aecc56837e432290d2909cd2e9013da70e8d29bf678764138e38381da4d5002Borrow131281672021-10-11 9:10:5814 days 4 hrs ago0xbee397129374d0b4db7bf1654936951e5bdfe5a6OUT 0x995cca2cd0c269fdee7d057a8a7aaa1586ecef510 BNB0.00462256
0x85676d5965db7242a918616fb987934d4aa408b623a7c86387dc024bd6135bf5Supply131281582021-10-11 9:10:3114 days 4 hrs ago0xbee397129374d0b4db7bf1654936951e5bdfe5a6OUT 0x995cca2cd0c269fdee7d057a8a7aaa1586ecef510 BNB0.00261354
0xc8bfc89208aa0d3b604c6772a3db728bb697b2ada3f4b097dae10f2cebc778f1Upgrade131279082021-10-11 8:58:0114 days 4 hrs ago0xbee397129374d0b4db7bf1654936951e5bdfe5a6OUT 0x40151e5d012e7de6000f7144288ef50af78882be0 BNB0.00033802
0x77a70a567ce4437956209823f14cecc2b98b72f498035eadfc9d7e1faeb45ad30x60806040131279052021-10-11 8:57:5214 days 4 hrs ago0xbee397129374d0b4db7bf1654936951e5bdfe5a6OUT Contract Creation0 BNB0.0305839
0x2700417aca3d8af3dbb6b2124a9d6c2483f5a22de804f1b33900d8a8c3136f3dBorrow131262512021-10-11 7:34:5514 days 5 hrs ago0xbee397129374d0b4db7bf1654936951e5bdfe5a6OUT 0x995cca2cd0c269fdee7d057a8a7aaa1586ecef510 BNB0.00462256
0x4c4815f5e11bbe6008f163b4d01271d009d7fd55fac052178c3b86e19405b3a6Borrow131261312021-10-11 7:28:5514 days 5 hrs ago0xbee397129374d0b4db7bf1654936951e5bdfe5a6OUT 0x995cca2cd0c269fdee7d057a8a7aaa1586ecef510 BNB0.0055924
0xfb26d60a92dc8fc269b886ab270ac9761178403855958750357a1124c60a4b48Enter Markets131261102021-10-11 7:27:5214 days 5 hrs ago0xbee397129374d0b4db7bf1654936951e5bdfe5a6OUT 0x995cca2cd0c269fdee7d057a8a7aaa1586ecef510 BNB0.00091627
0x1c5e8a3c4d1784b9385bac1ef98b68360d95f77a676f91fb97df5fe59b2dcbd8Supply131261032021-10-11 7:27:3114 days 5 hrs ago0xbee397129374d0b4db7bf1654936951e5bdfe5a6OUT 0x995cca2cd0c269fdee7d057a8a7aaa1586ecef510 BNB0.00282726
0x0500e7cbfbaf166b69ab82c10bca587d0d8c5b076622749ddf5a56fd691380f4Approve131260982021-10-11 7:27:1614 days 5 hrs ago0xbee397129374d0b4db7bf1654936951e5bdfe5a6OUT 0xf523e4478d909968090a232eb380e2dd6f8025180 BNB0.0004724
0x41f980bf0c0050f81cb6f96cd87f3a90f48aae6fe8969e244f76ff4c94144bd3Set Collateral F...131260832021-10-11 7:26:3114 days 5 hrs ago0xbee397129374d0b4db7bf1654936951e5bdfe5a6OUT 0x995cca2cd0c269fdee7d057a8a7aaa1586ecef510 BNB0.00076699
0x20c03177be641817504e6ad9f9d654a1af2654415c2e87ea63969d962b66e20dUpgrade131241352021-10-11 5:48:2914 days 7 hrs ago0xbee397129374d0b4db7bf1654936951e5bdfe5a6OUT 0x40151e5d012e7de6000f7144288ef50af78882be0 BNB0.00033814
0x8d7f83293f23bad4538cf14e6217fd23b452bdb00065335031cda5985e8b84f70x60806040131241332021-10-11 5:48:2314 days 7 hrs ago0xbee397129374d0b4db7bf1654936951e5bdfe5a6OUT Contract Creation0 BNB0.01725176
[ Download CSV Export 
Latest 4 internal transactions
Parent Txn Hash Block From To Value
0xe8b5e25e286bbdedaa40526d16b99cfe172380553eb606baf94f4b21ec880f4c131299972021-10-11 10:42:2814 days 2 hrs ago 0x9ac64cc6e4415144c455bd8e4837fea55603e5c30xbee397129374d0b4db7bf1654936951e5bdfe5a60.001 BNB
0x9aecc56837e432290d2909cd2e9013da70e8d29bf678764138e38381da4d5002131281672021-10-11 9:10:5814 days 4 hrs ago 0x14fa6a83a08b763b8a430e1faeafe009d266f2800xbee397129374d0b4db7bf1654936951e5bdfe5a60.0025 BNB
0x2700417aca3d8af3dbb6b2124a9d6c2483f5a22de804f1b33900d8a8c3136f3d131262512021-10-11 7:34:5514 days 5 hrs ago 0x14fa6a83a08b763b8a430e1faeafe009d266f2800xbee397129374d0b4db7bf1654936951e5bdfe5a60.05006 BNB
0x4c4815f5e11bbe6008f163b4d01271d009d7fd55fac052178c3b86e19405b3a6131261312021-10-11 7:28:5514 days 5 hrs ago 0x14fa6a83a08b763b8a430e1faeafe009d266f2800xbee397129374d0b4db7bf1654936951e5bdfe5a60.0299 BNB
[ Download CSV Export 
Loading

Contract Name:
0 BNB

Compiler Version
0

Optimization Enabled:
0 BNB

Other Settings:
-NA-
Block Transaction Gas Used Reward
Age Block Fee Address BC Fee Address Voting Power Jailed Incoming
Block Uncle Number Difficulty Gas Used Reward
Loading